Change the Weather History Date:

Saturday, May 31, 2014

  Actual Average Record
Temperature  
Mean Temperature 70 °F 71 °F  
Max Temperature 81 °F 82 °F 98 °F (1991)
Min Temperature 58 °F 60 °F 45 °F (1938)
Degree Days  
Heating Degree Days 0 1  
Month to date heating degree days 20 74  
Since 1 July heating degree days 3780 3766  
Cooling Degree Days 5 7  
Month to date cooling degree days 179 119  
Year to date cooling degree days 208 161  
Growing Degree Days 20 (Base 50)    
Moisture  
Dew Point 52 °F    
Average Humidity 59    
Maximum Humidity 90    
Minimum Humidity 28    
Precipitation  
Precipitation 0.00 in 0.13 in 2.12 in (1972)
Month to date precipitation 2.44 3.78  
Year to date precipitation 16.04 16.89  
Snow  
Snow 0.00 in 0.00 in 0.00 in (2002)
Month to date snowfall 0.0 0.0  
Since 1 July snowfall 14.5 10.3  
Snow Depth 0.00 in    
Sea Level Pressure  
Sea Level Pressure 30.18 in    
Wind  
Wind Speed 8 mph (NNE)    
Max Wind Speed 17 mph    
Max Gust Speed 22 mph    
Visibility 9 miles    
Events      
T = Trace of Precipitation, MM = Missing Value Source: NWS Daily Summary

Daily Weather History Graph

Daily Weather History Graph

Search for Another Location

Airport or City:

Trip Planner

Search our weather history database for the weather conditions in past years. The results will help you decide how hot, cold, wet, or windy it might be!

Date:

Astronomy

May. 31, 2014 Rise Set
Actual Time 5:50 AM EDT 8:24 PM EDT
Civil Twilight 5:19 AM EDT 8:54 PM EDT
Nautical Twilight 4:41 AM EDT 9:32 PM EDT
Astronomical Twilight 3:59 AM EDT 10:14 PM EDT
Moon 8:24 AM EDT (5/31) 10:43 PM EDT (5/31)
Length of Visible Light 15h 34m
Length of Day
14h 33m
Waxing Crescent, 8% of the Moon is Illuminated
May 31
Waxing Crescent
Jun 5
First Quarter
Jun 13
Full
Jun 19
Last Quarter
Jun 27
New

Hourly Weather History & Observations

Time (EDT) Temp. Dew Point Humidity Pressure Visibility Wind Dir Wind Speed Gust Speed Precip Events Conditions
12:54 AM 61.0 °F 57.0 °F 87% 30.14 in 6.0 mi Calm Calm - N/A   Clear
1:54 AM 61.0 °F 57.9 °F 90% 30.14 in 6.0 mi WSW 3.5 mph - N/A   Clear
2:54 AM 61.0 °F 57.9 °F 90% 30.12 in 6.0 mi West 3.5 mph - N/A   Clear
3:54 AM 61.0 °F 57.0 °F 87% 30.12 in 6.0 mi West 4.6 mph - N/A   Partly Cloudy
4:54 AM 60.1 °F 57.0 °F 90% 30.14 in 5.0 mi NNW 3.5 mph - N/A   Scattered Clouds
5:54 AM 59.0 °F 55.9 °F 90% 30.16 in 3.0 mi North 4.6 mph - N/A   Mostly Cloudy
6:54 AM 62.1 °F 57.9 °F 86% 30.17 in 5.0 mi North 6.9 mph - N/A   Mostly Cloudy
7:54 AM 64.9 °F 57.9 °F 78% 30.18 in 10.0 mi North 6.9 mph - N/A   Mostly Cloudy
8:54 AM 69.1 °F 55.0 °F 61% 30.19 in 10.0 mi NNE 9.2 mph - N/A   Overcast
9:54 AM 72.0 °F 53.1 °F 51% 30.20 in 10.0 mi NNE 10.4 mph - N/A   Overcast
10:54 AM 75.2 °F 51.8 °F 44% 30.19 in 10.0 mi NE 10.4 mph - N/A   Overcast
11:54 AM 75.9 °F 48.9 °F 38% 30.19 in 10.0 mi NNE 13.8 mph 17.3 mph N/A   Overcast
12:54 PM 78.1 °F 46.9 °F 33% 30.18 in 10.0 mi North 13.8 mph 18.4 mph N/A   Overcast
1:54 PM 78.1 °F 46.0 °F 32% 30.18 in 10.0 mi NNE 10.4 mph 18.4 mph N/A   Overcast
2:54 PM 78.1 °F 46.0 °F 32% 30.17 in 10.0 mi NE 8.1 mph - N/A   Mostly Cloudy
3:54 PM 79.0 °F 45.0 °F 30% 30.17 in 10.0 mi NNE 10.4 mph - N/A   Scattered Clouds
4:54 PM 80.1 °F 44.1 °F 28% 30.17 in 10.0 mi North 8.1 mph - N/A   Scattered Clouds
5:54 PM 78.1 °F 44.1 °F 30% 30.17 in 10.0 mi North 6.9 mph - N/A   Scattered Clouds
6:54 PM 77.0 °F 44.1 °F 31% 30.18 in 10.0 mi NNE 8.1 mph - N/A   Scattered Clouds
7:54 PM 72.0 °F 46.9 °F 41% 30.20 in 10.0 mi East 6.9 mph - N/A   Scattered Clouds
8:54 PM 66.9 °F 52.0 °F 59% 30.22 in 10.0 mi ESE 12.7 mph 21.9 mph N/A   Scattered Clouds
9:54 PM 64.0 °F 52.0 °F 65% 30.25 in 10.0 mi ESE 10.4 mph - N/A   Scattered Clouds
10:54 PM 61.0 °F 52.0 °F 72% 30.27 in 10.0 mi ESE 5.8 mph - N/A   Scattered Clouds
11:54 PM 60.1 °F 52.0 °F 75% 30.28 in 10.0 mi East 3.5 mph - N/A   Clear